Location: Newark
(45.8378°N, 5.5389°E)
Time: 06:41:30
(UTC+00:00)

YUBILEINY - Pass Details

Date: 22 December 2019
Orbit: 1478 x 1509 km, 82.5° (Epoch: 27 January)

Event Time Altitude Azimuth Distance (km) Brightness Sun altitude
Rises 20:27:51 0° 203° (SSW) 4,603 ? -46.1°
Reaches altitude 10° 20:30:49 10° 208° (SSW) 3,622 ? -46.6°
Enters shadow 20:31:20 12° 209° (SSW) 3,458 ? -46.6°
Exits shadow 20:48:45 - 5° (N) 3,915 ? -49.5°
Sets 20:50:51 0° 8° (N) 4,611 ? -49.9°
